Station 46014 (LLNR 445) - PT ARENA - 19NM North of Point Arena, CA Image indicating link to RSS feed of recent meteorological observations for station 46014


Conditions at 46014 as of
(4:00 pm PDT)
2300 GMT on 06/21/2024:
     

Click on the graph icon in the table below to see a time series plot of the last five days of that observation.

5-day plot - Wind Direction Wind Direction (WDIR):NNW ( 330 deg true )
5-day plot - Wind Speed Wind Speed (WSPD): 19.4 kts
5-day plot - Wind Gust Wind Gust (GST): 25.3 kts
5-day plot - Atmospheric Pressure Atmospheric Pressure (PRES):29.84 in
5-day plot - Pressure Tendency Pressure Tendency (PTDY):-0.03 in ( Falling )
5-day plot - Air Temperature Air Temperature (ATMP): 51.3 °F
5-day plot - Water Temperature Water Temperature (WTMP): 49.3 °F
5-day plot - Dew Point Dew Point (DEWP): 50.5 °F
5-day plot - Wind Chill Wind Chill (CHILL): 44.8 °F
5-day plot - Wind Speed at 10 Meters Wind Speed at 10 meters (WSPD10M): 21.4 kts
5-day plot - Wind Speed at 20 Meters Wind Speed at 20 meters (WSPD20M): 23.3 kts
5-day plot -  Wind Speed, Wind Gust and Atmospheric Pressure Combined plot of Wind Speed, Gust, and Air Pressure
Supplemental Measurements
Highest 1-minute Wind Speed
Time (PDT)5-day plot - 1-Minute Wind Speed WSPD 5-day plot - 1-Minute Wind Direction WDIR
3:58 pm 21.4 kts-
Previous observations
TIME
(PDT)
5-day plot - Wind Direction
WDIR
 
5-day plot - Wind Speed
WSPD
kts
5-day plot - Wind Gust
GST
kts
5-day plot - Wave Height
WVHT
ft
5-day plot - Dominant Wave Period
DPD
sec
5-day plot - Average Wave Period
APD
sec
5-day plot - Mean Wave Direction
MWD
 
5-day plot - Atmospheric Pressure
PRES
in
5-day plot - Pressure Tendency
PTDY
in
5-day plot - Air Temperature
ATMP
°F
5-day plot - Water Temperature
WTMP
°F
5-day plot - Dew Point
DEWP
°F
5-day plot - Salinity
SAL
psu
5-day plot - Visibility
VIS
nmi
5-day plot - Tide (above MLLW)
TIDE
ft
2024-06-21 03:50 pmNNW 19.4 25.3 7.2 75.5 NW29.84- 51.3 49.3 50.5---
2024-06-21 03:40 pmNNW 19.4 27.2----29.84- 51.4 49.3 50.7---
2024-06-21 03:30 pmNNW 19.4 25.3----29.84- 51.3 49.3 50.5---
2024-06-21 03:20 pmNNW 19.4 25.3 7.9 75.6 NW29.85- 51.3 49.3 50.5---
2024-06-21 03:10 pmNNW 19.4 25.3 7.9-5.6 NW29.85- 51.4 49.3 50.7---
2024-06-21 03:00 pmNNW 19.4 25.3----29.85-0.01 51.4 49.3 50.7---
2024-06-21 02:50 pmNNW 19.4 23.3 7.5 85.7 NW29.85- 51.4 49.3 50.7---
2024-06-21 02:40 pmNNW 17.5 21.4----29.85- 51.4 49.3 50.7---
2024-06-21 02:30 pmNNW 17.5 23.3----29.85- 51.4 49.3 50.7---
2024-06-21 02:20 pmNNW 17.5 23.3 7.5 75.6 NW29.85- 51.3 49.3 50.5---
2024-06-21 02:10 pm NW 17.5 23.3----29.85- 51.3 49.3 50.5---
2024-06-21 02:00 pmNNW 17.5 23.3----29.85+0.00 51.3 49.3 50.5---
2024-06-21 01:50 pmNNW 17.5 21.4 7.5 75.5 NW29.86- 51.3 49.3 50.5---
2024-06-21 01:40 pmNNW 17.5 23.3----29.86- 51.3 49.3 50.5---
2024-06-21 01:30 pmNNW 17.5 21.4----29.86- 51.3 49.3 50.5---
2024-06-21 01:20 pmNNW 17.5 23.3 7.9 75.6 NW29.86- 51.3 49.3 50.5---
2024-06-21 01:10 pmNNW 17.5 23.3 7.9-5.6 NW29.86- 51.1 49.3 50.4---
2024-06-21 01:00 pmNNW 17.5 23.3----29.86+0.02 51.1 49.3 50.4---
2024-06-21 12:50 pmNNW 17.5 23.3 7.5 75.5 NW29.86- 51.1 49.3 50.4---
2024-06-21 12:40 pmNNW 17.5 23.3 7.5-5.5 NW29.87- 50.9 49.3 50.4---
2024-06-21 12:30 pmNNW 19.4 25.3----29.86- 50.9 49.3 50.4---
2024-06-21 12:20 pmNNW 17.5 23.3 8.2 75.7 NW29.86- 50.9 49.3 50.5---
2024-06-21 12:10 pmNNW 19.4 23.3----29.86- 50.9 49.3 50.5---
2024-06-21 12:00 pmNNW 17.5 23.3----29.86+0.02 50.7 49.3 50.5---
2024-06-21 11:50 amNNW 19.4 23.3 7.9 85.8 NW29.86- 50.5 49.3 50.4---
2024-06-21 11:40 amNNW 17.5 23.3----29.86- 50.5 49.3 50.4---
2024-06-21 11:30 amNNW 19.4 27.2----29.86- 50.4 49.3 50.2---
2024-06-21 11:20 amNNW 19.4 25.3 8.9 85.8 NW29.86- 50.4 49.3 50.2---
2024-06-21 11:10 amNNW 19.4 25.3 8.9-5.8 NW29.85- 50.4 49.3 50.4---
2024-06-21 11:00 amNNW 19.4 25.3----29.85+0.01 50.5 49.3 50.4---
2024-06-21 10:50 amNNW 19.4 25.3 8.5 85.8NNW29.85- 50.5 49.3 50.4---
2024-06-21 10:40 amNNW 21.4 25.3 8.5-5.8NNW29.85- 50.5 49.3 50.4---
2024-06-21 10:30 amNNW 19.4 27.2----29.85- 50.5 49.3 50.4---
2024-06-21 10:20 amNNW 21.4 27.2 9.5 76.1NNW29.85- 50.5 49.3 50.5---
2024-06-21 10:10 amNNW 19.4 27.2 9.5-6.1NNW29.85- 50.5 49.3 50.4---
2024-06-21 10:00 amNNW 21.4 27.2----29.85+0.00 50.5 49.3 50.4---
2024-06-21 09:50 amNNW 21.4 27.2 8.5 85.8 NW29.84- 50.5 49.3 50.4---
2024-06-21 09:40 amNNW 21.4 25.3----29.85- 50.4 49.3 50.2---
2024-06-21 09:30 amNNW 21.4 25.3----29.84- 50.4 49.3 50.2---
2024-06-21 09:20 amNNW 21.4 27.2 9.2 75.8NNW29.84- 50.4 49.3 50.2---
2024-06-21 09:10 amNNW 21.4 25.3 9.2-5.8NNW29.84- 50.4 49.3 50.2---
2024-06-21 09:00 amNNW 21.4 27.2----29.84+0.00 50.4 49.3 50.0---
2024-06-21 08:50 amNNW 21.4 29.1 8.5 85.8NNW29.84- 50.4 49.3 50.2---
2024-06-21 08:40 amNNW 21.4 25.3----29.84- 50.2 49.3 50.0---
2024-06-21 08:30 amNNW 21.4 27.2----29.84- 50.2 49.3 49.8---
2024-06-21 08:20 amNNW 21.4 27.2 8.9 85.8NNW29.84- 50.2 49.3 49.8---
2024-06-21 08:10 amNNW 23.3 29.1 8.9-5.8NNW29.84- 50.2 49.3 49.8---
2024-06-21 08:00 amNNW 23.3 29.1----29.84+0.00 50.2 49.1 49.8---
2024-06-21 07:50 amNNW 21.4 29.1 9.2 85.7NNW29.84- 50.2 49.1 50.0---
2024-06-21 07:40 amNNW 23.3 29.1----29.85- 50.0 49.1 49.8---
2024-06-21 07:30 amNNW 23.3 29.1----29.84- 50.0 49.1 49.8---
2024-06-21 07:20 amNNW 23.3 31.1 10.2 86.2NNW29.84- 50.2 49.1 50.2---
2024-06-21 07:10 amNNW 23.3 29.1----29.84- 50.2 49.1 50.2---
2024-06-21 07:00 amNNW 23.3 29.1----29.84+0.00 50.2 49.3 50.2---
2024-06-21 06:50 amNNW 23.3 29.1 9.8 86.0NNW29.84- 50.0 49.3 50.0---
2024-06-21 06:40 amNNW 23.3 29.1----29.84- 50.0 49.3 50.0---
2024-06-21 06:30 amNNW 21.4 27.2----29.84- 50.0 49.3 50.0---
2024-06-21 06:20 amNNW 23.3 29.1 8.9 85.7 NW29.84- 50.2 49.3 50.2---
2024-06-21 06:10 amNNW 23.3 29.1 8.9-5.7 NW29.84- 50.2 49.3 50.2---
2024-06-21 06:00 amNNW 23.3 29.1----29.84+0.00 50.0 49.3 49.8---
2024-06-21 05:50 amNNW 23.3 29.1 9.5 85.9 NW29.83- 50.0 49.3 49.8---
2024-06-21 05:40 amNNW 23.3 29.1----29.83- 50.2 49.3 50.0---
2024-06-21 05:30 amNNW 25.3 29.1----29.83- 50.4 49.3 50.2---
2024-06-21 05:20 amNNW 25.3 31.1 9.5 75.8NNW29.83- 50.4 49.1 50.0---
2024-06-21 05:10 amNNW 23.3 29.1 9.5-5.8NNW29.84- 50.5 49.1 50.2---
2024-06-21 05:00 amNNW 25.3 33.0----29.84-0.01 50.7 49.1 50.2---
2024-06-21 04:50 amNNW 25.3 31.1 8.9 75.7NNW29.84- 50.7 49.1 50.2---
2024-06-21 04:40 amNNW 25.3 33.0----29.84- 50.9 49.1 50.2---
2024-06-21 04:30 amNNW 27.2 33.0----29.84- 51.1 49.1 50.4---
2024-06-21 04:20 amNNW 25.3 33.0 8.5 75.6 NW29.84- 51.1 49.1 50.2---
2024-06-21 04:10 amNNW 25.3 33.0 8.5-5.6 NW29.84- 51.3 49.1 50.4---
2024-06-21 04:00 amNNW 25.3 31.1----29.84-0.01 51.3 49.3 50.4---
2024-06-21 03:50 amNNW 25.3 33.0 7.9 75.5NNW29.85- 51.4 49.3 50.5---
2024-06-21 03:40 amNNW 25.3 33.0 7.9-5.5NNW29.85- 51.4 49.3 50.5---
2024-06-21 03:30 amNNW 25.3 33.0----29.85- 51.4 49.3 50.5---
2024-06-21 03:20 amNNW 25.3 33.0 8.5 75.6 NW29.84- 51.4 49.3 50.5---
2024-06-21 03:10 amNNW 25.3 31.1----29.84- 51.4 49.3 50.5---
2024-06-21 03:00 amNNW 25.3 33.0----29.85+0.00 51.4 49.3 50.5---
2024-06-21 02:50 amNNW 25.3 31.1 7.9 75.6 NW29.85- 51.4 49.3 50.5---
2024-06-21 02:40 amNNW 25.3 29.1----29.85- 51.4 49.3 50.5---
2024-06-21 02:30 amNNW 23.3 29.1----29.85- 51.4 49.3 50.5---
2024-06-21 02:20 amNNW 25.3 29.1 8.2 75.5 NW29.85- 51.4 49.3 50.5---
2024-06-21 02:10 amNNW 23.3 33.0----29.85- 51.4 49.3 50.4---
2024-06-21 02:00 amNNW 25.3 31.1----29.85+0.00 51.6 49.3 50.5---
2024-06-21 01:50 amNNW 25.3 31.1 8.2 75.5 NW29.85- 51.6 49.3 50.5---
2024-06-21 01:40 amNNW 25.3 31.1 8.2-5.5 NW29.85- 51.4 49.3 50.4---
2024-06-21 01:30 amNNW 25.3 33.0----29.85- 51.4 49.5 50.4---
2024-06-21 01:20 amNNW 23.3 31.1 8.5 85.6 NW29.85- 51.4 49.5 50.4---
2024-06-21 01:10 amNNW 21.4 27.2----29.85- 51.4 49.5 50.4---
2024-06-21 01:00 amNNW 21.4 27.2----29.85+0.00 51.4 49.5 50.4---
2024-06-21 12:50 amNNW 21.4 27.2 8.9 85.8 NW29.85- 51.4 49.5 50.4---
2024-06-21 12:40 amNNW 21.4 25.3----29.85- 51.4 49.5 50.2---
2024-06-21 12:30 amNNW 21.4 27.2----29.86- 51.4 49.5 50.2---
2024-06-21 12:20 amNNW 21.4 27.2 8.5 85.6NNW29.85- 51.4 49.5 50.0---
2024-06-21 12:10 amNNW 23.3 29.1----29.85- 51.4 49.6 50.0---
2024-06-21 12:00 amNNW 23.3 31.1----29.85+0.00 51.6 49.6 50.2---
2024-06-20 11:50 pmNNW 23.3 29.1 9.5 85.9 NW29.85- 51.6 49.8 50.2---
2024-06-20 11:40 pmNNW 21.4 27.2----29.84- 51.6 49.8 50.2---
2024-06-20 11:30 pmNNW 21.4 27.2----29.85- 51.8 49.8 50.4---
2024-06-20 11:20 pmNNW 21.4 27.2 8.5 75.8 NW29.85- 51.8 49.8 50.5---
2024-06-20 11:10 pmNNW 19.4 25.3 8.5-5.8 NW29.85- 51.8 49.8 50.5---
2024-06-20 11:00 pmNNW 21.4 27.2----29.85+0.00 51.8 49.8 50.5---
2024-06-20 10:50 pmNNW 19.4 25.3 9.5 86.0 NW29.86- 51.8 49.8 50.5---
2024-06-20 10:40 pmNNW 21.4 25.3----29.86- 51.8 49.8 50.7---
2024-06-20 10:30 pmNNW 21.4 27.2----29.86- 51.6 49.8 50.5---
2024-06-20 10:20 pmNNW 19.4 25.3 9.2 85.9 NW29.86- 51.6 49.8 50.5---
2024-06-20 10:10 pmNNW 21.4 27.2----29.86- 51.6 49.8 50.7---
2024-06-20 10:00 pmNNW 21.4 27.2----29.86-0.01 51.6 49.8 50.9---
2024-06-20 09:50 pmNNW 21.4 29.1 9.2 85.9NNW29.85- 51.4 49.8 50.7---
2024-06-20 09:40 pmNNW 21.4 29.1----29.85- 51.4 49.8 50.7---
2024-06-20 09:30 pmNNW 23.3 31.1----29.85- 51.6 49.8 50.9---
2024-06-20 09:20 pmNNW 23.3 29.1 8.9 75.7 NW29.85- 51.6 49.8 50.9---
2024-06-20 09:10 pmNNW 23.3 29.1----29.85- 51.6 49.8 50.9---
2024-06-20 09:00 pmNNW 21.4 29.1----29.85-0.03 51.6 49.8 50.9---
2024-06-20 08:50 pmNNW 21.4 27.2 8.5 85.7NNW29.85- 51.6 49.8 50.9---
2024-06-20 08:40 pmNNW 21.4 29.1 8.5-5.7NNW29.85- 51.8 49.8 50.9---
2024-06-20 08:30 pmNNW 21.4 27.2----29.86- 51.8 49.8 50.9---
2024-06-20 08:20 pmNNW 19.4 27.2 9.2 76.0 NW29.85- 51.8 49.8 50.9---
2024-06-20 08:10 pmNNW 19.4 27.2 9.2-6.0 NW29.86- 52.0 49.8 51.1---
2024-06-20 08:00 pmNNW 19.4 25.3----29.86-0.03 52.0 49.8 51.1---
2024-06-20 07:50 pmNNW 19.4 25.3 8.9 75.7NNW29.86- 52.0 49.8 51.1---
2024-06-20 07:40 pmNNW 21.4 27.2----29.86- 52.0 49.8 50.9---
2024-06-20 07:30 pmNNW 19.4 27.2----29.86- 52.0 49.8 50.9---
2024-06-20 07:20 pmNNW 19.4 25.3 8.2 85.7 NW29.86- 52.2 49.8 51.1---
2024-06-20 07:10 pmNNW 21.4 27.2----29.86- 52.2 49.8 51.1---
2024-06-20 07:00 pmNNW 21.4 27.2----29.87-0.03 52.2 49.8 50.9---
2024-06-20 06:50 pmNNW 19.4 25.3 8.5 75.8 NW29.87- 52.2 49.8 50.9---
2024-06-20 06:40 pmNNW 19.4 27.2----29.87- 52.2 49.8 50.9---
2024-06-20 06:30 pm NW 19.4 23.3----29.87- 52.3 49.8 51.1---
2024-06-20 06:20 pm NW 19.4 23.3 7.9 75.6 NW29.87- 52.3 49.8 51.1---
2024-06-20 06:10 pm NW 19.4 25.3 7.9-5.6 NW29.88- 52.2 49.8 50.9---
2024-06-20 06:00 pmNNW 19.4 23.3----29.88-0.02 52.2 49.8 50.9---
2024-06-20 05:50 pmNNW 17.5 23.3 7.9 75.5NNW29.88- 52.2 49.8 50.7---
2024-06-20 05:40 pmNNW 17.5 23.3 7.9-5.5NNW29.88- 52.2 49.8 50.9---
2024-06-20 05:30 pmNNW 17.5 27.2----29.88- 52.0 49.8 50.7---
2024-06-20 05:20 pmNNW 17.5 23.3 7.5 75.6NNW29.88- 52.0 49.8 50.7---
2024-06-20 05:10 pmNNW 17.5 21.4 7.5-5.6NNW29.88- 52.0 49.8 50.7---
2024-06-20 05:00 pmNNW 15.5 19.4----29.88-0.02 51.8 49.8 50.5---
2024-06-20 04:50 pmNNW 15.5 21.4 6.9 75.4NNW29.89- 51.8 49.8 50.5---
2024-06-20 04:40 pmNNW 15.5 21.4----29.89- 51.8 49.8 50.5---
2024-06-20 04:30 pmNNW 17.5 21.4----29.89- 51.8 49.8 50.5---
2024-06-20 04:20 pmNNW 17.5 25.3 6.6 75.3 NW29.90- 51.8 49.8 50.5---
2024-06-20 04:10 pmNNW 19.4 23.3----29.89- 51.8 49.8 50.5---
2024-06-20 04:00 pmNNW 17.5 23.3----29.90-0.01 51.8 49.8 50.5---
2024-06-20 03:50 pmNNW 17.5 21.4 6.9 75.3NNW29.90- 51.8 49.8 50.5---

Detailed Wave Summary
for 46014 as of (3:40 pm PDT)
2240 GMT on 06/21/2024:

These wave data are displayed in rounded times.

     

Click on the graph icon in the table below to see a time series plot of the last five days of that observation.

5-day plot - Significant Wave Height Significant Wave Height (WVHT): 7.2 ft
5-day plot - Swell Height Swell Height (SwH): 3.3 ft
5-day plot - Swell Period Swell Period (SwP): 8.3 sec
5-day plot - Swell Direction Swell Direction (SwD): NW
5-day plot - Wind Wave Height Wind Wave Height (WWH): 6.6 ft
5-day plot - Wind Wave Period Wind Wave Period (WWP): 6.7 sec
5-day plot - Wind Wave Direction Wind Wave Direction (WWD): NW
5-day plot - Wave Steepness Wave Steepness (STEEPNESS):VERY_STEEP
5-day plot - Average Wave Period Average Wave Period (APD): 5.5 sec
Previous observations
TIME
(PDT)
5-day plot - Wave Height
WVHT
ft
5-day plot - Swell Height
SwH
ft
5-day plot - Swell Period
SwP
sec
5-day plot - Swell Direction
SwD
 
5-day plot - Wind Wave Height
WWH
ft
5-day plot - Wind Wave Period
WWP
sec
5-day plot - Wind Wave Direction
WWD
 
5-day plot - Wave Steepness
STEEPNESS
 
5-day plot - Average Wave Period
APD
sec
2024-06-21 03:10 pm 7.9 2.0 12.9 SE 7.5 7.1 NW STEEP 5.6
2024-06-21 02:40 pm 7.5 2.0 11.4WSW 7.2 7.7 NW STEEP 5.7
2024-06-21 02:10 pm 7.5 4.9 7.1 NW 5.6 5.0 NW STEEP 5.6
2024-06-21 01:40 pm 7.5 1.6 12.9 S 7.2 7.1 NW STEEP 5.5
2024-06-21 01:10 pm 7.9 3.0 14.8 SW 7.2 6.7 NWVERY_STEEP 5.6
2024-06-21 12:40 pm 7.5 2.0 12.9SSW 7.5 7.1 NW STEEP 5.5
2024-06-21 12:10 pm 8.2 1.0 14.8 SE 7.9 7.1 NW STEEP 5.7
2024-06-21 11:40 am 7.9 2.0 12.1 E 7.9 7.7 NW STEEP 5.8
2024-06-21 11:10 am 8.9 1.3 12.9 SW 8.5 7.7 NW STEEP 5.8
2024-06-21 10:40 am 8.5 2.6 13.8 W 7.9 7.7 NNW STEEP 5.8
2024-06-21 10:10 am 9.5 1.3 14.8SSW 9.5 7.1 NNWVERY_STEEP 6.1
2024-06-21 09:40 am 8.5 2.0 12.9 W 8.2 7.7 NW STEEP 5.8
2024-06-21 09:10 am 9.2 2.6 13.8SSW 8.9 7.1 NNWVERY_STEEP 5.8
2024-06-21 08:40 am 8.5 2.3 12.1WNW 8.2 7.7 NNW STEEP 5.8
2024-06-21 08:10 am 8.9 1.3 11.4 NW 8.5 7.7 NNW STEEP 5.8
2024-06-21 07:40 am 9.2 2.3 11.4 NW 8.9 7.7 NNW STEEP 5.7
2024-06-21 07:10 am 10.2 1.0 11.4 NW 10.2 7.7 NNW STEEP 6.2
2024-06-21 06:40 am 9.8 1.0 12.9WSW 9.8 7.7 NNW STEEP 6.0
2024-06-21 06:10 am 8.9 3.9 12.9SSE 7.9 7.7 NW STEEP 5.7
2024-06-21 05:40 am 9.5 2.3 13.8 W 9.2 8.3 NW STEEP 5.9
2024-06-21 05:10 am 9.5 1.0 12.1 N 9.5 7.1 NNWVERY_STEEP 5.8
2024-06-21 04:40 am 8.9 1.3 12.9 W 8.9 7.1 NNWVERY_STEEP 5.7
2024-06-21 04:10 am 8.5 3.0 11.4 N 7.9 7.1 NWVERY_STEEP 5.6
2024-06-21 03:40 am 7.9 5.2 7.1NNW 5.9 5.9 NW STEEP 5.5
2024-06-21 03:10 am 8.5 1.3 14.8 NW 8.5 7.1 NWVERY_STEEP 5.6
2024-06-21 02:40 am 7.9 1.6 14.8WNW 7.9 7.1 NW STEEP 5.6
2024-06-21 02:10 am 8.2 3.0 14.8 N 7.5 7.1 NW STEEP 5.5
2024-06-21 01:40 am 8.2 1.6 14.8WNW 8.2 7.1 NW STEEP 5.5
2024-06-21 01:10 am 8.5 5.2 7.7 NW 6.6 5.6 NW STEEP 5.6
2024-06-21 12:40 am 8.9 1.3 14.8ESE 8.9 7.7 NW STEEP 5.8
2024-06-21 12:10 am 8.5 3.3 13.8 NE 7.9 7.7 NNW STEEP 5.6
2024-06-20 11:40 pm 9.5 3.9 14.8WSW 8.9 7.7 NW STEEP 5.9
2024-06-20 11:10 pm 8.5 1.6 14.8SSW 8.5 7.1 NWVERY_STEEP 5.8
2024-06-20 10:40 pm 9.5 1.3 12.9 NE 9.5 7.7 NW STEEP 6.0
2024-06-20 10:10 pm 9.2 1.3 14.8 S 8.9 7.7 NW STEEP 5.9
2024-06-20 09:40 pm 9.2 1.3 14.8SSW 9.2 7.7 NNW STEEP 5.9
2024-06-20 09:10 pm 8.9 2.3 14.8SSW 8.5 7.1 NWVERY_STEEP 5.7
2024-06-20 08:40 pm 8.5 3.3 13.8SSW 7.9 7.7 NNW STEEP 5.7
2024-06-20 08:10 pm 9.2 1.6 14.8 NW 9.2 7.1 NWVERY_STEEP 6.0
2024-06-20 07:40 pm 8.9 3.0 13.8 SW 8.2 7.1 NNWVERY_STEEP 5.7
2024-06-20 07:10 pm 8.2 2.0 10.0WNW 7.9 7.7 NW STEEP 5.7
2024-06-20 06:40 pm 8.5 1.6 16.0WSW 8.2 7.1 NWVERY_STEEP 5.8
2024-06-20 06:10 pm 7.9 1.6 12.9 S 7.5 7.1 NW STEEP 5.6
2024-06-20 05:40 pm 7.9 2.3 14.8 S 7.2 6.7 NNWVERY_STEEP 5.5
2024-06-20 05:10 pm 7.5 2.3 16.0SSW 7.2 7.1 NNW STEEP 5.6
2024-06-20 04:40 pm 6.9 3.0 16.0 S 5.9 7.1 NNW STEEP 5.4
2024-06-20 04:10 pm 6.6 3.9 14.8 SE 5.6 6.7 NW STEEP 5.3

Plot of wave energy versus frequency (and period)